Year,Month,Day,Hour,Minute,Value (Times are PST for temperature in C)
2014,03,22,00,00,4.40
2014,03,22,00,01,4.40
2014,03,22,00,02,4.40
2014,03,22,00,03,4.30
2014,03,22,00,04,4.30
2014,03,22,00,05,4.30
2014,03,22,00,06,4.30
2014,03,22,00,07,4.30
2014,03,22,00,08,4.30
2014,03,22,00,09,4.30
2014,03,22,00,10,4.30
2014,03,22,00,11,4.30
2014,03,22,00,12,4.30
2014,03,22,00,13,4.20
2014,03,22,00,14,4.20
2014,03,22,00,15,4.10
2014,03,22,00,16,4.10
2014,03,22,00,17,4.10
2014,03,22,00,18,4.10
2014,03,22,00,19,4.10
2014,03,22,00,20,4.10
2014,03,22,00,21,4.10
2014,03,22,00,22,4.10
2014,03,22,00,23,4.10
2014,03,22,00,24,4.00
2014,03,22,00,25,4.00
2014,03,22,00,26,4.00
2014,03,22,00,27,4.00
2014,03,22,00,28,4.00
2014,03,22,00,29,3.90
2014,03,22,00,30,3.90
2014,03,22,00,31,3.90
2014,03,22,00,32,3.90
2014,03,22,00,33,3.90
2014,03,22,00,34,3.90
2014,03,22,00,35,3.90
2014,03,22,00,36,3.90
2014,03,22,00,37,3.80
2014,03,22,00,38,3.80
2014,03,22,00,39,3.80
2014,03,22,00,40,3.80
2014,03,22,00,41,3.80
2014,03,22,00,42,3.80
2014,03,22,00,43,3.80
2014,03,22,00,44,3.70
2014,03,22,00,45,3.70
2014,03,22,00,46,3.70
2014,03,22,00,47,3.70
2014,03,22,00,48,3.70
2014,03,22,00,49,3.70
2014,03,22,00,50,3.70
2014,03,22,00,51,3.70
2014,03,22,00,52,3.70
2014,03,22,00,53,3.70
2014,03,22,00,54,3.70
2014,03,22,00,55,3.70
2014,03,22,00,56,3.70
2014,03,22,00,57,3.70
2014,03,22,00,58,3.70
2014,03,22,00,59,3.70
2014,03,22,01,00,3.70
2014,03,22,01,01,3.70
2014,03,22,01,02,3.70
2014,03,22,01,03,3.70
2014,03,22,01,04,3.70
2014,03,22,01,05,3.70
2014,03,22,01,06,3.70
2014,03,22,01,07,3.70
2014,03,22,01,08,3.60
2014,03,22,01,09,3.60
2014,03,22,01,10,3.60
2014,03,22,01,11,3.60
2014,03,22,01,12,3.60
2014,03,22,01,13,3.60
2014,03,22,01,14,3.50
2014,03,22,01,15,3.50
2014,03,22,01,16,3.50
2014,03,22,01,17,3.50
2014,03,22,01,18,3.50
2014,03,22,01,19,3.50
2014,03,22,01,20,3.50
2014,03,22,01,21,3.50
2014,03,22,01,22,3.40
2014,03,22,01,23,3.40
2014,03,22,01,24,3.40
2014,03,22,01,25,3.40
2014,03,22,01,26,3.40
2014,03,22,01,27,3.40
2014,03,22,01,28,3.40
2014,03,22,01,29,3.40
2014,03,22,01,30,3.40
2014,03,22,01,31,3.40
2014,03,22,01,32,3.40
2014,03,22,01,33,3.40
2014,03,22,01,34,3.40
2014,03,22,01,35,3.40
2014,03,22,01,36,3.40
2014,03,22,01,37,3.40
2014,03,22,01,38,3.40
2014,03,22,01,39,3.40
2014,03,22,01,40,3.40
2014,03,22,01,41,3.40
2014,03,22,01,42,3.40
2014,03,22,01,43,3.30
2014,03,22,01,44,3.30
2014,03,22,01,45,3.30
2014,03,22,01,46,3.30
2014,03,22,01,47,3.30
2014,03,22,01,48,3.30
2014,03,22,01,49,3.30
2014,03,22,01,50,3.30
2014,03,22,01,51,3.30
2014,03,22,01,52,3.20
2014,03,22,01,53,3.20
2014,03,22,01,54,3.20
2014,03,22,01,55,3.20
2014,03,22,01,56,3.20
2014,03,22,01,57,3.20
2014,03,22,01,58,3.20
2014,03,22,01,59,3.20
2014,03,22,02,00,3.20
2014,03,22,02,01,3.10
2014,03,22,02,02,3.10
2014,03,22,02,03,3.20
2014,03,22,02,04,3.20
2014,03,22,02,05,3.10
2014,03,22,02,06,3.10
2014,03,22,02,07,3.20
2014,03,22,02,08,3.20
2014,03,22,02,09,3.10
2014,03,22,02,10,3.10
2014,03,22,02,11,3.10
2014,03,22,02,12,3.20
2014,03,22,02,13,3.20
2014,03,22,02,14,3.10
2014,03,22,02,15,3.10
2014,03,22,02,16,3.10
2014,03,22,02,17,3.10
2014,03,22,02,18,3.10
2014,03,22,02,19,3.10
2014,03,22,02,20,3.10
2014,03,22,02,21,3.10
2014,03,22,02,22,3.10
2014,03,22,02,23,3.00
2014,03,22,02,24,3.00
2014,03,22,02,25,3.00
2014,03,22,02,26,3.00
2014,03,22,02,27,3.00
2014,03,22,02,28,2.90
2014,03,22,02,29,2.90
2014,03,22,02,30,2.90
2014,03,22,02,31,2.90
2014,03,22,02,32,2.90
2014,03,22,02,33,2.90
2014,03,22,02,34,2.90
2014,03,22,02,35,2.90
2014,03,22,02,36,2.80
2014,03,22,02,37,2.80
2014,03,22,02,38,2.80
2014,03,22,02,39,2.80
2014,03,22,02,40,2.80
2014,03,22,02,41,2.80
2014,03,22,02,42,2.80
2014,03,22,02,43,2.80
2014,03,22,02,44,2.80
2014,03,22,02,45,2.80
2014,03,22,02,46,2.80
2014,03,22,02,47,2.80
2014,03,22,02,48,2.80
2014,03,22,02,49,2.80
2014,03,22,02,50,2.80
2014,03,22,02,51,2.80
2014,03,22,02,52,2.70
2014,03,22,02,53,2.70
2014,03,22,02,54,2.70
2014,03,22,02,55,2.80
2014,03,22,02,56,2.80
2014,03,22,02,57,2.80
2014,03,22,02,58,2.80
2014,03,22,02,59,2.70
2014,03,22,03,00,2.70
2014,03,22,03,01,2.70
2014,03,22,03,02,2.70
2014,03,22,03,03,2.70
2014,03,22,03,04,2.70
2014,03,22,03,05,2.70
2014,03,22,03,06,2.70
2014,03,22,03,07,2.70
2014,03,22,03,08,2.70
2014,03,22,03,09,2.70
2014,03,22,03,10,2.70
2014,03,22,03,11,2.70
2014,03,22,03,12,2.70
2014,03,22,03,13,2.70
2014,03,22,03,14,2.70
2014,03,22,03,15,2.70
2014,03,22,03,16,2.70
2014,03,22,03,17,2.60
2014,03,22,03,18,2.60
2014,03,22,03,19,2.60
2014,03,22,03,20,2.60
2014,03,22,03,21,2.60
2014,03,22,03,22,2.60
2014,03,22,03,23,2.60
2014,03,22,03,24,2.60
2014,03,22,03,25,2.60
2014,03,22,03,26,2.60
2014,03,22,03,27,2.60
2014,03,22,03,28,2.60
2014,03,22,03,29,2.50
2014,03,22,03,30,2.50
2014,03,22,03,31,2.50
2014,03,22,03,32,2.50
2014,03,22,03,33,2.50
2014,03,22,03,34,2.50
2014,03,22,03,35,2.50
2014,03,22,03,36,2.50
2014,03,22,03,37,2.50
2014,03,22,03,38,2.50
2014,03,22,03,39,2.50
2014,03,22,03,40,2.50
2014,03,22,03,41,2.50
2014,03,22,03,42,2.50
2014,03,22,03,43,2.50
2014,03,22,03,44,2.50
2014,03,22,03,45,2.50
2014,03,22,03,46,2.50
2014,03,22,03,47,2.50
2014,03,22,03,48,2.60
2014,03,22,03,49,2.60
2014,03,22,03,50,2.60
2014,03,22,03,51,2.60
2014,03,22,03,52,2.60
2014,03,22,03,53,2.60
2014,03,22,03,54,2.60
2014,03,22,03,55,2.60
2014,03,22,03,56,2.60
2014,03,22,03,57,2.60
2014,03,22,03,58,2.60
2014,03,22,03,59,2.60
2014,03,22,04,00,2.60
2014,03,22,04,01,2.60
2014,03,22,04,02,2.60
2014,03,22,04,03,2.60
2014,03,22,04,04,2.60
2014,03,22,04,05,2.70
2014,03,22,04,06,2.70
2014,03,22,04,07,2.70
2014,03,22,04,08,2.70
2014,03,22,04,09,2.70
2014,03,22,04,10,2.70
2014,03,22,04,11,2.70
2014,03,22,04,12,2.70
2014,03,22,04,13,2.70
2014,03,22,04,14,2.70
2014,03,22,04,15,2.70
2014,03,22,04,16,2.70
2014,03,22,04,17,2.70
2014,03,22,04,18,2.70
2014,03,22,04,19,2.70
2014,03,22,04,20,2.70
2014,03,22,04,21,2.70
2014,03,22,04,22,2.70
2014,03,22,04,23,2.70
2014,03,22,04,24,2.70
2014,03,22,04,25,2.70
2014,03,22,04,26,2.70
2014,03,22,04,27,2.70
2014,03,22,04,28,2.70
2014,03,22,04,29,2.70
2014,03,22,04,30,2.70
2014,03,22,04,31,2.70
2014,03,22,04,32,2.70
2014,03,22,04,33,2.70
2014,03,22,04,34,2.70
2014,03,22,04,35,2.70
2014,03,22,04,36,2.70
2014,03,22,04,37,2.70
2014,03,22,04,38,2.70
2014,03,22,04,39,2.70
2014,03,22,04,40,2.70
2014,03,22,04,41,2.70
2014,03,22,04,42,2.70
2014,03,22,04,43,2.70
2014,03,22,04,44,2.70
2014,03,22,04,45,2.70
2014,03,22,04,46,2.70
2014,03,22,04,47,2.70
2014,03,22,04,48,2.70
2014,03,22,04,49,2.70
2014,03,22,04,50,2.70
2014,03,22,04,51,2.70
2014,03,22,04,52,2.60
2014,03,22,04,53,2.60
2014,03,22,04,54,2.60
2014,03,22,04,55,2.60
2014,03,22,04,56,2.60
2014,03,22,04,57,2.60
2014,03,22,04,58,2.60
2014,03,22,04,59,2.60
2014,03,22,05,00,2.60
2014,03,22,05,01,2.60
2014,03,22,05,02,2.60
2014,03,22,05,03,2.60
2014,03,22,05,04,2.60
2014,03,22,05,05,2.50
2014,03,22,05,06,2.50
2014,03,22,05,07,2.50
2014,03,22,05,08,2.50
2014,03,22,05,09,2.50
2014,03,22,05,10,2.40
2014,03,22,05,11,2.40
2014,03,22,05,12,2.40
2014,03,22,05,13,2.40
2014,03,22,05,14,2.40
2014,03,22,05,15,2.40
2014,03,22,05,16,2.40
2014,03,22,05,17,2.40
2014,03,22,05,18,2.40
2014,03,22,05,19,2.30
2014,03,22,05,20,2.30
2014,03,22,05,21,2.30
2014,03,22,05,22,2.30
2014,03,22,05,23,2.30
2014,03,22,05,24,2.30
2014,03,22,05,25,2.30
2014,03,22,05,26,2.30
2014,03,22,05,27,2.20
2014,03,22,05,28,2.20
2014,03,22,05,29,2.20
2014,03,22,05,30,2.20
2014,03,22,05,31,2.20
2014,03,22,05,32,2.20
2014,03,22,05,33,2.20
2014,03,22,05,34,2.20
2014,03,22,05,35,2.20
2014,03,22,05,36,2.20
2014,03,22,05,37,2.20
2014,03,22,05,38,2.20
2014,03,22,05,39,2.20
2014,03,22,05,40,2.20
2014,03,22,05,41,2.20
2014,03,22,05,42,2.10
2014,03,22,05,43,2.10
2014,03,22,05,44,2.10
2014,03,22,05,45,2.10
2014,03,22,05,46,2.10
2014,03,22,05,47,2.10
2014,03,22,05,48,2.00
2014,03,22,05,49,2.00
2014,03,22,05,50,2.00
2014,03,22,05,51,1.90
2014,03,22,05,52,1.90
2014,03,22,05,53,1.90
2014,03,22,05,54,1.80
2014,03,22,05,55,1.80
2014,03,22,05,56,1.70
2014,03,22,05,57,1.70
2014,03,22,05,58,1.70
2014,03,22,05,59,1.60
2014,03,22,06,00,1.60
2014,03,22,06,01,1.60
2014,03,22,06,02,1.60
2014,03,22,06,03,1.60
2014,03,22,06,04,1.50
2014,03,22,06,05,1.50
2014,03,22,06,06,1.50
2014,03,22,06,07,1.50
2014,03,22,06,08,1.40
2014,03,22,06,09,1.40
2014,03,22,06,10,1.40
2014,03,22,06,11,1.40
2014,03,22,06,12,1.40
2014,03,22,06,13,1.40
2014,03,22,06,14,1.40
2014,03,22,06,15,1.40
2014,03,22,06,16,1.30
2014,03,22,06,17,1.30
2014,03,22,06,18,1.30
2014,03,22,06,19,1.30
2014,03,22,06,20,1.30
2014,03,22,06,21,1.30
2014,03,22,06,22,1.30
2014,03,22,06,23,1.30
2014,03,22,06,24,1.30
2014,03,22,06,25,1.30
2014,03,22,06,26,1.30
2014,03,22,06,27,1.30
2014,03,22,06,28,1.30
2014,03,22,06,29,1.30
2014,03,22,06,30,1.30
2014,03,22,06,31,1.30
2014,03,22,06,32,1.30
2014,03,22,06,33,1.30
2014,03,22,06,34,1.30
2014,03,22,06,35,1.30
2014,03,22,06,36,1.30
2014,03,22,06,37,1.30
2014,03,22,06,38,1.30
2014,03,22,06,39,1.30
2014,03,22,06,40,1.30
2014,03,22,06,41,1.30
2014,03,22,06,42,1.30
2014,03,22,06,43,1.30
2014,03,22,06,44,1.20
2014,03,22,06,45,1.20
2014,03,22,06,46,1.20
2014,03,22,06,47,1.20
2014,03,22,06,48,1.20
2014,03,22,06,49,1.20
2014,03,22,06,50,1.20
2014,03,22,06,51,1.20
2014,03,22,06,52,1.20
2014,03,22,06,53,1.20
2014,03,22,06,54,1.20
2014,03,22,06,55,1.20
2014,03,22,06,56,1.20
2014,03,22,06,57,1.20
2014,03,22,06,58,1.20
2014,03,22,06,59,1.20
2014,03,22,07,00,1.20
2014,03,22,07,01,1.20
2014,03,22,07,02,1.20
2014,03,22,07,03,1.20
2014,03,22,07,04,1.20
2014,03,22,07,05,1.20
2014,03,22,07,06,1.20
2014,03,22,07,07,1.20
2014,03,22,07,08,1.20
2014,03,22,07,09,1.20
2014,03,22,07,10,1.10
2014,03,22,07,11,1.10
2014,03,22,07,12,1.10
2014,03,22,07,13,1.10
2014,03,22,07,14,1.10
2014,03,22,07,15,1.10
2014,03,22,07,16,1.10
2014,03,22,07,17,1.10
2014,03,22,07,18,1.10
2014,03,22,07,19,1.10
2014,03,22,07,20,1.10
2014,03,22,07,21,1.00
2014,03,22,07,22,1.00
2014,03,22,07,23,1.00
2014,03,22,07,24,1.00
2014,03,22,07,25,1.00
2014,03,22,07,26,1.00
2014,03,22,07,27,0.90
2014,03,22,07,28,0.90
2014,03,22,07,29,0.90
2014,03,22,07,30,0.90
2014,03,22,07,31,0.90
2014,03,22,07,32,0.90
2014,03,22,07,33,0.90
2014,03,22,07,34,0.90
2014,03,22,07,35,0.80
2014,03,22,07,36,0.80
2014,03,22,07,37,0.80
2014,03,22,07,38,0.80
2014,03,22,07,39,0.80
2014,03,22,07,40,0.80
2014,03,22,07,41,0.80
2014,03,22,07,42,0.80
2014,03,22,07,43,0.80
2014,03,22,07,44,0.80
2014,03,22,07,45,0.80
2014,03,22,07,46,0.80
2014,03,22,07,47,0.80
2014,03,22,07,48,0.80
2014,03,22,07,49,0.80
2014,03,22,07,50,0.80
2014,03,22,07,51,0.80
2014,03,22,07,52,0.80
2014,03,22,07,53,0.80
2014,03,22,07,54,0.80
2014,03,22,07,55,0.80
2014,03,22,07,56,0.80
2014,03,22,07,57,0.80
2014,03,22,07,58,0.80
2014,03,22,07,59,0.80
2014,03,22,08,00,0.80
2014,03,22,08,01,0.80
2014,03,22,08,02,0.80
2014,03,22,08,03,0.80
2014,03,22,08,04,0.80
2014,03,22,08,05,0.80
2014,03,22,08,06,0.80
2014,03,22,08,07,0.70
2014,03,22,08,08,0.80
2014,03,22,08,09,0.70
2014,03,22,08,10,0.70
2014,03,22,08,11,0.80
2014,03,22,08,12,0.80
2014,03,22,08,13,0.80
2014,03,22,08,14,0.80
2014,03,22,08,15,0.80
2014,03,22,08,16,0.80
2014,03,22,08,17,0.80
2014,03,22,08,18,0.80
2014,03,22,08,19,0.80
2014,03,22,08,20,0.80
2014,03,22,08,21,0.80
2014,03,22,08,22,0.80
2014,03,22,08,23,0.80
2014,03,22,08,24,0.80
2014,03,22,08,25,0.80
2014,03,22,08,26,0.80
2014,03,22,08,27,0.80
2014,03,22,08,28,0.80
2014,03,22,08,29,0.80
2014,03,22,08,30,0.80
2014,03,22,08,31,0.80
2014,03,22,08,32,0.80
2014,03,22,08,33,0.80
2014,03,22,08,34,0.80
2014,03,22,08,35,0.80
2014,03,22,08,36,0.80
2014,03,22,08,37,0.80
2014,03,22,08,38,0.80
2014,03,22,08,39,0.80
2014,03,22,08,40,0.80
2014,03,22,08,41,0.80
2014,03,22,08,42,0.80
2014,03,22,08,43,0.80
2014,03,22,08,44,0.90
2014,03,22,08,45,0.90
2014,03,22,08,46,0.90
2014,03,22,08,47,0.90
2014,03,22,08,48,0.90
2014,03,22,08,49,0.90
2014,03,22,08,50,0.90
2014,03,22,08,51,0.90
2014,03,22,08,52,0.90
2014,03,22,08,53,0.90
2014,03,22,08,54,0.90
2014,03,22,08,55,0.90
2014,03,22,08,56,0.90
2014,03,22,08,57,1.00
2014,03,22,08,58,1.00
2014,03,22,08,59,1.00
2014,03,22,09,00,1.00
2014,03,22,09,01,1.00
2014,03,22,09,02,1.10
2014,03,22,09,03,1.10
2014,03,22,09,04,1.10
2014,03,22,09,05,1.10
2014,03,22,09,06,1.10
2014,03,22,09,07,1.10
2014,03,22,09,08,1.10
2014,03,22,09,09,1.10
2014,03,22,09,10,1.10
2014,03,22,09,11,1.20
2014,03,22,09,12,1.20
2014,03,22,09,13,1.20
2014,03,22,09,14,1.20
2014,03,22,09,15,1.20
2014,03,22,09,16,1.20
2014,03,22,09,17,1.20
2014,03,22,09,18,1.20
2014,03,22,09,19,1.20
2014,03,22,09,20,1.30
2014,03,22,09,21,1.30
2014,03,22,09,22,1.30
2014,03,22,09,23,1.30
2014,03,22,09,24,1.30
2014,03,22,09,25,1.30
2014,03,22,09,26,1.30
2014,03,22,09,27,1.30
2014,03,22,09,28,1.30
2014,03,22,09,29,1.40
2014,03,22,09,30,1.40
2014,03,22,09,31,1.40
2014,03,22,09,32,1.40
2014,03,22,09,33,1.40
2014,03,22,09,34,1.50
2014,03,22,09,35,1.50
2014,03,22,09,36,1.50
2014,03,22,09,37,1.50
2014,03,22,09,38,1.50
2014,03,22,09,39,1.50
2014,03,22,09,40,1.50
2014,03,22,09,41,1.50
2014,03,22,09,42,1.50
2014,03,22,09,43,1.60
2014,03,22,09,44,1.60
2014,03,22,09,45,1.60
2014,03,22,09,46,1.60
2014,03,22,09,47,1.60
2014,03,22,09,48,1.60
2014,03,22,09,49,1.60
2014,03,22,09,50,1.60
2014,03,22,09,51,1.60
2014,03,22,09,52,1.60
2014,03,22,09,53,1.60
2014,03,22,09,54,1.60
2014,03,22,09,55,1.70
2014,03,22,09,56,1.70
2014,03,22,09,57,1.70
2014,03,22,09,58,1.70
2014,03,22,09,59,1.70
2014,03,22,10,00,1.70
2014,03,22,10,01,1.70
2014,03,22,10,02,1.70
2014,03,22,10,03,1.70
2014,03,22,10,04,1.70
2014,03,22,10,05,1.80
2014,03,22,10,06,1.80
2014,03,22,10,07,1.80
2014,03,22,10,08,1.80
2014,03,22,10,09,1.80
2014,03,22,10,10,1.80
2014,03,22,10,11,1.80
2014,03,22,10,12,1.90
2014,03,22,10,13,1.90
2014,03,22,10,14,1.90
2014,03,22,10,15,1.90
2014,03,22,10,16,1.90
2014,03,22,10,17,1.90
2014,03,22,10,18,1.90
2014,03,22,10,19,1.90
2014,03,22,10,20,2.00
2014,03,22,10,21,2.00
2014,03,22,10,22,2.00
2014,03,22,10,23,2.00
2014,03,22,10,24,2.10
2014,03,22,10,25,2.10
2014,03,22,10,26,2.10
2014,03,22,10,27,2.10
2014,03,22,10,28,2.10
2014,03,22,10,29,2.20
2014,03,22,10,30,2.20
2014,03,22,10,31,2.20
2014,03,22,10,32,2.20
2014,03,22,10,33,2.20
2014,03,22,10,34,2.30
2014,03,22,10,35,2.30
2014,03,22,10,36,2.30
2014,03,22,10,37,2.30
2014,03,22,10,38,2.40
2014,03,22,10,39,2.40
2014,03,22,10,40,2.40
2014,03,22,10,41,2.50
2014,03,22,10,42,2.50
2014,03,22,10,43,2.50
2014,03,22,10,44,2.60
2014,03,22,10,45,2.60
2014,03,22,10,46,2.60
2014,03,22,10,47,2.60
2014,03,22,10,48,2.60
2014,03,22,10,49,2.70
2014,03,22,10,50,2.70
2014,03,22,10,51,2.70
2014,03,22,10,52,2.70
2014,03,22,10,53,2.70
2014,03,22,10,54,2.70
2014,03,22,10,55,2.70
2014,03,22,10,56,2.70
2014,03,22,10,57,2.70
2014,03,22,10,58,2.70
2014,03,22,10,59,2.70
2014,03,22,11,00,2.70
2014,03,22,11,01,2.70
2014,03,22,11,02,2.70
2014,03,22,11,03,2.70
2014,03,22,11,04,2.70
2014,03,22,11,05,2.70
2014,03,22,11,06,2.80
2014,03,22,11,07,2.80
2014,03,22,11,08,2.80
2014,03,22,11,09,2.80
2014,03,22,11,10,2.80
2014,03,22,11,11,2.80
2014,03,22,11,12,2.90
2014,03,22,11,13,2.90
2014,03,22,11,14,2.90
2014,03,22,11,15,2.90
2014,03,22,11,16,2.90
2014,03,22,11,17,3.00
2014,03,22,11,18,3.00
2014,03,22,11,19,3.10
2014,03,22,11,20,3.10
2014,03,22,11,21,3.10
2014,03,22,11,22,3.10
2014,03,22,11,23,3.10
2014,03,22,11,24,3.10
2014,03,22,11,25,3.10
2014,03,22,11,26,3.10
2014,03,22,11,27,3.10
2014,03,22,11,28,3.20
2014,03,22,11,29,3.20
2014,03,22,11,30,3.20
2014,03,22,11,31,3.20
2014,03,22,11,32,3.20
2014,03,22,11,33,3.20
2014,03,22,11,34,3.20
2014,03,22,11,35,3.30
2014,03,22,11,36,3.30
2014,03,22,11,37,3.30
2014,03,22,11,38,3.30
2014,03,22,11,39,3.30
2014,03,22,11,40,3.30
2014,03,22,11,41,3.30
2014,03,22,11,42,3.30
2014,03,22,11,43,3.30
2014,03,22,11,44,3.30
2014,03,22,11,45,3.30
2014,03,22,11,46,3.30
2014,03,22,11,47,3.30
2014,03,22,11,48,3.30
2014,03,22,11,49,3.40
2014,03,22,11,50,3.40
2014,03,22,11,51,3.40
2014,03,22,11,52,3.40
2014,03,22,11,53,3.40
2014,03,22,11,54,3.40
2014,03,22,11,55,3.40
2014,03,22,11,56,3.50
2014,03,22,11,57,3.50
2014,03,22,11,58,3.50
2014,03,22,11,59,3.50
2014,03,22,12,00,3.50
2014,03,22,12,01,3.50
2014,03,22,12,02,3.50
2014,03,22,12,03,3.60
2014,03,22,12,04,3.60
2014,03,22,12,05,3.60
2014,03,22,12,06,3.70
2014,03,22,12,07,3.70
2014,03,22,12,08,3.70
2014,03,22,12,09,3.70
2014,03,22,12,10,3.70
2014,03,22,12,11,3.80
2014,03,22,12,12,3.80
2014,03,22,12,13,3.90
2014,03,22,12,14,3.90
2014,03,22,12,15,3.90
2014,03,22,12,16,3.90
2014,03,22,12,17,4.00
2014,03,22,12,18,4.00
2014,03,22,12,19,4.10
2014,03,22,12,20,4.10
2014,03,22,12,21,4.20
2014,03,22,12,22,4.20
2014,03,22,12,23,4.20
2014,03,22,12,24,4.20
2014,03,22,12,25,4.30
2014,03,22,12,26,4.30
2014,03,22,12,27,4.30
2014,03,22,12,28,4.30
2014,03,22,12,29,4.40
2014,03,22,12,30,4.40
2014,03,22,12,31,4.40
2014,03,22,12,32,4.50
2014,03,22,12,33,4.50
2014,03,22,12,34,4.60
2014,03,22,12,35,4.60
2014,03,22,12,36,4.70
2014,03,22,12,37,4.70
2014,03,22,12,38,4.70
2014,03,22,12,39,4.80
2014,03,22,12,40,4.80
2014,03,22,12,41,4.80
2014,03,22,12,42,4.90
2014,03,22,12,43,4.90
2014,03,22,12,44,4.90
2014,03,22,12,45,5.00
2014,03,22,12,46,5.00
2014,03,22,12,47,5.10
2014,03,22,12,48,5.10
2014,03,22,12,49,5.20
2014,03,22,12,50,5.20
2014,03,22,12,51,5.20
2014,03,22,12,52,5.20
2014,03,22,12,53,5.30
2014,03,22,12,54,5.30
2014,03,22,12,55,5.40
2014,03,22,12,56,5.40
2014,03,22,12,57,5.50
2014,03,22,12,58,5.50
2014,03,22,12,59,5.50
2014,03,22,13,00,5.60
2014,03,22,13,01,5.60
2014,03,22,13,02,5.60
2014,03,22,13,03,5.60
2014,03,22,13,04,5.60
2014,03,22,13,05,5.60
2014,03,22,13,06,5.60
2014,03,22,13,07,5.60
2014,03,22,13,08,5.70
2014,03,22,13,09,5.70
2014,03,22,13,10,5.70
2014,03,22,13,11,5.70
2014,03,22,13,12,5.70
2014,03,22,13,13,5.80
2014,03,22,13,14,5.80
2014,03,22,13,15,5.90
2014,03,22,13,16,5.90
2014,03,22,13,17,6.00
2014,03,22,13,18,6.00
2014,03,22,13,19,6.10
2014,03,22,13,20,6.10
2014,03,22,13,21,6.20
2014,03,22,13,22,6.20
2014,03,22,13,23,6.20
2014,03,22,13,24,6.30
2014,03,22,13,25,6.50
2014,03,22,13,26,6.50
2014,03,22,13,27,6.60
2014,03,22,13,28,6.60
2014,03,22,13,29,6.70
2014,03,22,13,30,6.70
2014,03,22,13,31,6.80
2014,03,22,13,32,6.90
2014,03,22,13,33,6.90
2014,03,22,13,34,7.00
2014,03,22,13,35,7.00
2014,03,22,13,36,7.10
2014,03,22,13,37,7.10
2014,03,22,13,38,7.10
2014,03,22,13,39,7.10
2014,03,22,13,40,7.10
2014,03,22,13,41,7.10
2014,03,22,13,42,7.10
2014,03,22,13,43,7.10
2014,03,22,13,44,7.00
2014,03,22,13,45,7.10
2014,03,22,13,46,7.10
2014,03,22,13,47,7.10
2014,03,22,13,48,7.10
2014,03,22,13,49,7.00
2014,03,22,13,50,7.00
2014,03,22,13,51,7.00
2014,03,22,13,52,6.90
2014,03,22,13,53,6.90
2014,03,22,13,54,6.90
2014,03,22,13,55,6.90
2014,03,22,13,56,6.90
2014,03,22,13,57,6.90
2014,03,22,13,58,6.90
2014,03,22,13,59,7.00
2014,03,22,14,00,7.00
2014,03,22,14,01,7.00
2014,03,22,14,02,7.00
2014,03,22,14,03,7.00
2014,03,22,14,04,7.00
2014,03,22,14,05,7.10
2014,03,22,14,06,7.10
2014,03,22,14,07,7.10
2014,03,22,14,08,7.10
2014,03,22,14,09,7.10
2014,03,22,14,10,7.10
2014,03,22,14,11,7.00
2014,03,22,14,12,7.00
2014,03,22,14,13,7.00
2014,03,22,14,14,7.00
2014,03,22,14,15,7.00
2014,03,22,14,16,6.90
2014,03,22,14,17,6.90
2014,03,22,14,18,6.90
2014,03,22,14,19,6.90
2014,03,22,14,20,6.90
2014,03,22,14,21,6.90
2014,03,22,14,22,6.90
2014,03,22,14,23,6.90
2014,03,22,14,24,6.90
2014,03,22,14,25,6.90
2014,03,22,14,26,6.90
2014,03,22,14,27,6.90
2014,03,22,14,28,6.90
2014,03,22,14,29,6.90
2014,03,22,14,30,6.90
2014,03,22,14,31,6.90
2014,03,22,14,32,6.90
2014,03,22,14,33,6.90
2014,03,22,14,34,6.90
2014,03,22,14,35,6.90
2014,03,22,14,36,6.90
2014,03,22,14,37,6.90
2014,03,22,14,38,7.00
2014,03,22,14,39,7.00
2014,03,22,14,40,7.00
2014,03,22,14,41,7.00
2014,03,22,14,42,7.10
2014,03,22,14,43,7.10
2014,03,22,14,44,7.10
2014,03,22,14,45,7.10
2014,03,22,14,46,7.10
2014,03,22,14,47,7.10
2014,03,22,14,48,7.10
2014,03,22,14,49,7.10
2014,03,22,14,50,7.10
2014,03,22,14,51,7.10
2014,03,22,14,52,7.20
2014,03,22,14,53,7.20
2014,03,22,14,54,7.20
2014,03,22,14,55,7.20
2014,03,22,14,56,7.20
2014,03,22,14,57,7.30
2014,03,22,14,58,7.30
2014,03,22,14,59,7.30
2014,03,22,15,00,7.30
2014,03,22,15,01,7.40
2014,03,22,15,02,7.40
2014,03,22,15,03,7.40
2014,03,22,15,04,7.40
2014,03,22,15,05,7.40
2014,03,22,15,06,7.50
2014,03,22,15,07,7.50
2014,03,22,15,08,7.50
2014,03,22,15,09,7.60
2014,03,22,15,10,7.60
2014,03,22,15,11,7.60
2014,03,22,15,12,7.60
2014,03,22,15,13,7.70
2014,03,22,15,14,7.70
2014,03,22,15,15,7.70
2014,03,22,15,16,7.80
2014,03,22,15,17,7.80
2014,03,22,15,18,7.80
2014,03,22,15,19,7.80
2014,03,22,15,20,7.80
2014,03,22,15,21,7.80
2014,03,22,15,22,7.80
2014,03,22,15,23,7.80
2014,03,22,15,24,7.80
2014,03,22,15,25,7.80
2014,03,22,15,26,7.80
2014,03,22,15,27,7.80
2014,03,22,15,28,7.90
2014,03,22,15,29,7.90
2014,03,22,15,30,7.90
2014,03,22,15,31,7.90
2014,03,22,15,32,7.90
2014,03,22,15,33,7.90
2014,03,22,15,34,7.90
2014,03,22,15,35,7.90
2014,03,22,15,36,7.80
2014,03,22,15,37,7.80
2014,03,22,15,38,7.80
2014,03,22,15,39,7.80
2014,03,22,15,40,7.80
2014,03,22,15,41,7.80
2014,03,22,15,42,7.80
2014,03,22,15,43,7.80
2014,03,22,15,44,7.80
2014,03,22,15,45,7.80
2014,03,22,15,46,7.80
2014,03,22,15,47,7.80
2014,03,22,15,48,7.80
2014,03,22,15,49,7.80
2014,03,22,15,50,7.80
2014,03,22,15,51,7.80
2014,03,22,15,52,7.80
2014,03,22,15,53,7.80
2014,03,22,15,54,7.80
2014,03,22,15,55,7.80
2014,03,22,15,56,7.80
2014,03,22,15,57,7.80
2014,03,22,15,58,7.80
2014,03,22,15,59,7.80
2014,03,22,16,00,7.90
2014,03,22,16,01,7.90
2014,03,22,16,02,7.90
2014,03,22,16,03,7.90
2014,03,22,16,04,7.90
2014,03,22,16,05,7.90
2014,03,22,16,06,7.90
2014,03,22,16,07,7.90
2014,03,22,16,08,7.90
2014,03,22,16,09,7.90
2014,03,22,16,10,7.90
2014,03,22,16,11,7.90
2014,03,22,16,12,7.90
2014,03,22,16,13,7.90
2014,03,22,16,14,7.90
2014,03,22,16,15,7.90
2014,03,22,16,16,7.90
2014,03,22,16,17,7.90
2014,03,22,16,18,7.90
2014,03,22,16,19,7.90
2014,03,22,16,20,7.90
2014,03,22,16,21,7.90
2014,03,22,16,22,7.90
2014,03,22,16,23,7.90
2014,03,22,16,24,7.90
2014,03,22,16,25,7.90
2014,03,22,16,26,7.90
2014,03,22,16,27,7.90
2014,03,22,16,28,7.90
2014,03,22,16,29,7.90
2014,03,22,16,30,7.90
2014,03,22,16,31,8.00
2014,03,22,16,32,8.00
2014,03,22,16,33,8.00
2014,03,22,16,34,8.10
2014,03,22,16,35,8.10
2014,03,22,16,36,8.10
2014,03,22,16,37,8.10
2014,03,22,16,38,8.20
2014,03,22,16,39,8.20
2014,03,22,16,40,8.20
2014,03,22,16,41,8.20
2014,03,22,16,42,8.20
2014,03,22,16,43,8.20
2014,03,22,16,44,8.20
2014,03,22,16,45,8.20
2014,03,22,16,46,8.20
2014,03,22,16,47,8.20
2014,03,22,16,48,8.20
2014,03,22,16,49,8.20
2014,03,22,16,50,8.20
2014,03,22,16,51,8.20
2014,03,22,16,52,8.20
2014,03,22,16,53,8.20
2014,03,22,16,54,8.20
2014,03,22,16,55,8.10
2014,03,22,16,56,8.10
2014,03,22,16,57,8.10
2014,03,22,16,58,8.20
2014,03,22,16,59,8.20
2014,03,22,17,00,8.20
2014,03,22,17,01,8.20
2014,03,22,17,02,8.20
2014,03,22,17,03,8.20
2014,03,22,17,04,8.20
2014,03,22,17,05,8.20
2014,03,22,17,06,8.20
2014,03,22,17,07,8.20
2014,03,22,17,08,8.20
2014,03,22,17,09,8.20
2014,03,22,17,10,8.20
2014,03,22,17,11,8.20
2014,03,22,17,12,8.20
2014,03,22,17,13,8.20
2014,03,22,17,14,8.20
2014,03,22,17,15,8.30
2014,03,22,17,16,8.30
2014,03,22,17,17,8.30
2014,03,22,17,18,8.30
2014,03,22,17,19,8.30
2014,03,22,17,20,8.30
2014,03,22,17,21,8.30
2014,03,22,17,22,8.30
2014,03,22,17,23,8.30
2014,03,22,17,24,8.30
2014,03,22,17,25,8.30
2014,03,22,17,26,8.30
2014,03,22,17,27,8.30
2014,03,22,17,28,8.30
2014,03,22,17,29,8.30
2014,03,22,17,30,8.30
2014,03,22,17,31,8.30
2014,03,22,17,32,8.30
2014,03,22,17,33,8.30
2014,03,22,17,34,8.30
2014,03,22,17,35,8.30
2014,03,22,17,36,8.30
2014,03,22,17,37,8.30
2014,03,22,17,38,8.30
2014,03,22,17,39,8.30
2014,03,22,17,40,8.30
2014,03,22,17,41,8.30
2014,03,22,17,42,8.20
2014,03,22,17,43,8.20
2014,03,22,17,44,8.30
2014,03,22,17,45,8.30
2014,03,22,17,46,8.30
2014,03,22,17,47,8.20
2014,03,22,17,48,8.20
2014,03,22,17,49,8.20
2014,03,22,17,50,8.20
2014,03,22,17,51,8.20
2014,03,22,17,52,8.20
2014,03,22,17,53,8.20
2014,03,22,17,54,8.20
2014,03,22,17,55,8.20
2014,03,22,17,56,8.20
2014,03,22,17,57,8.20
2014,03,22,17,58,8.20
2014,03,22,17,59,8.20
2014,03,22,18,00,8.20
2014,03,22,18,01,8.20
2014,03,22,18,02,8.20
2014,03,22,18,03,8.30
2014,03,22,18,04,8.30
2014,03,22,18,05,8.30
2014,03,22,18,06,8.30